Showing default

FLOCK 4Q 26, 58284

Orbit data source: Space-Track

FLOCK 4Q 26, 58284 is a payload satellite owned by Planet (US) in SSO that was launched on Sat, 11 Nov 2023 UTC via an FALCON 9 launch vehicle from the Air Force Western Test Range (AFWTR). Payload-class satellites include a variety of spacecraft equipped with specific instruments for various scientific and technological missions. These include communications satellites like Starlink; space stations such as the ISS; scientific satellites like the Hubble; Earth observation satellites from companies like Planet Labs, Umbra, and HawkEye 360; GPS; miniature CubeSats for education and research; and military/defense satellites.

Loading next visibility...
Identifier
58284, 2023-174AE
Orbit
SSO
Country
Flag of USUS
Related business
Manufacturer
Planet
Mission
Operational Commercial Imaging
Bus & Motor
CUBESAT 3U, Unknown motor
Mass
5.7 kg wet, 5.7 kg dry
Launch date (UTC)
2023-11-11 (2 years ago)
Launch vehicle
FALCON 9
Launch site
Air Force Western Test Range (AFWTR)
Object type
Payload
Rocket body
Debris
Shape & HBR
Box + 2 Pan, 1.0 m
Radar Cross Section
0.072 m², Medium (>0.1 m² and < 1m²)

Expand to show TLE details & history
Last TLE update: 6 hours ago

TLE from 6 hours ago
0 FLOCK 4Q 26
1 58284U 23174AE  26126.79179918  .00029691  00000-0  44825-3 0  9995
2 58284  97.3867 217.8511 0004830 293.2349  66.8396 15.54689908139399
Epoch: 2026-05-06T19:00Z
TLE epoch observation values (Epoch: 2026-05-06T19:00:11.449Z)
Latitude
-0.00001°
Longitude
68.15618°
Altitude
404.905 km
Speed
7.668 km/s
True Right ascension
14h 31m 24s
True Declination
0° 00' 00"
Sunlit
Object was in full shadow at epoch
Visualization orbit readout
Latitude
Unknown
Longitude
Unknown
Altitude
Unknown
Speed
Unknown
Apparent Right ascension
Unknown
Apparent Declination
Unknown
Sunlit
N/A
Visualization observer readout
Local Sidereal Time
09:18:52
Azimuth
Unknown
Elevation
Unknown
Doppler factor
Unknown
Orbital elements
Apogee altitude
403.247 km
Perigee altitude
396.699 km
Semi-major axis
6,778.11 km
Eccentricity
0.00048
Inclination
97.3867°
RAAN
217.8511°
Arg. of periapsis
293.2349°
True anomaly
66.8905°
Mean anomaly
66.8396°
Eccentric anomaly
66.86505°
Mean motion
3.88938 °/min
Orbital period
92.56 mins
BSTAR
0.00044825
Loading maneuver chart data...
Computing Atmospheric mass density...
Loading historical data...
Loading historical data...
Loading historical data...
Loading historical data...
Loading historical data...
Loading historical data...
Loading historical data...

Documentation

Showing up to 5 results
|